Regional Weather Roundup
Issued by NWS Wakefield, VA

Home | Current Version | Previous Version | Graphics & Text | Print | Product List | Glossary On
Versions: 1 2 3 4 5 6 7 8 9 10 11 12 13 14 15 16 17 18 19 20 21 22 23 24 25 26 27 28 29 30 31 32 33 34 35 36 37 38 39 40 41 42 43 44 45 46 47 48 49 50
000
ASUS41 KAKQ 301715
RWRAKQ

REGIONAL WEATHER ROUNDUP
NATIONAL WEATHER SERVICE WAKEFIELD VA
100 PM EDT SAT MAY 30 2015

Note: "fair" indicates few or no clouds below 12,000 feet with no
significant weather and/or obstructions to visibility. * = Denotes
station may not report precipitation (e.g., rain,snow,etc.),
thunder or fog.

VAZ042-051-052>054-056-301800-
NORTHERN VIRGINIA

CITY           SKY/WX    TMP DP  RH WIND       PRES   REMARKS
WASH NATIONAL  MOSUNNY   86  69  56 S15       30.16F
DULLES         MOSUNNY   85  66  53 S14       30.15F
FORT BELVOIR   SUNNY     85  67  54 S10       30.16F
QUANTICO       SUNNY     81  70  69 S8        30.16F
FREDERICKSBRG* MOSUNNY   87  65  47 S10       30.15F
STAFFORD*      MOSUNNY   83  64  52 S3        30.20F
WARRENTON      SUNNY     87  67  52 S8G17     30.15F
CULPEPER*      SUNNY     84  64  50 S7        30.16F
MANASSAS*      SUNNY     84  66  54 S13       30.15F
LEESBURG*      PTSUNNY   88  66  48 SW13      30.15F
WINCHESTER     SUNNY     82  68  61 S5        30.15F
FRONT ROYAL*   FAIR      82  70  65 SE5       30.14F
LURAY*         FAIR      86  66  51 SW9       30.15F
$$

VAZ048-049-060>072-079>083-301800-
CENTRAL AND SOUTH CENTRAL VIRGINIA

CITY           SKY/WX    TMP DP  RH WIND       PRES   REMARKS
RICHMOND       PTSUNNY   84  66  54 S10       30.18F
CHESTERFIELD*  NOT AVBL
PETERSBURG*    CLOUDY    84  71  66 S5        30.19F
HANOVER        MOSUNNY   85  67  54 VRB7      30.19F
TAPPAHANNOCK*  MOSUNNY   86  60  41 S9        30.19F
QUINTON*       FAIR      83  66  57 S7        30.19F
CHARLOTTSVILLE SUNNY     85  59  41 S10       30.16F
GORDONSVILLE*  FAIR      83  64  52 SW8       30.16F
ORANGE*        SUNNY     86  61  42 S13G18    30.18F
LOUISA*        MOSUNNY   86  64  48 SW6       30.17S
BUMPASS*       FAIR      84  66  54 SW6       30.17F
FARMVILLE*     MOSUNNY   84  66  54 S7        30.17F
CREWE*         FAIR      81  66  59 S5        30.19F
FORT PICKETT*  PTSUNNY   82  67  59 S5        30.19F
CHASE CITY*    FAIR      85  69  58 S6        30.19F
CLARKSVILLE*   FAIR      82  64  54 SE5       30.19F
SOUTH HILL*    MOSUNNY   82  66  58 SW7       30.25F
LAWRENCEVILLE* PTSUNNY   81  66  61 CALM      30.19F
EMPORIA*       MOSUNNY   84  64  51 E7        30.21F
$$

VAZ088>098-301800-
SOUTHEAST VIRGINIA

CITY           SKY/WX    TMP DP  RH WIND       PRES   REMARKS
NORFOLK        PTSUNNY   81  66  60 NE9       30.20F
VIRGINIA BEACH MOSUNNY   83  67  58 SE15      30.20F
NORFOLK NAVAL  PTSUNNY   85  66  53 NE9       30.22F
WEST POINT*    SUNNY     87  62  43 SE7       30.21F
SALUDA*        FAIR      83  66  57 S6        30.19F
NEWPORT NEWS   PTSUNNY   86  64  47 S6        30.20F
LANGLEY AFB    MOSUNNY   84  65  52 E10       30.19F
FORT EUSTIS    MOSUNNY   82  67  60 S7        30.18F
WILLIAMSBURG*  SUNNY     88  70  55 SE3       30.21F
HR EXEC AP*    FAIR      84  66  54 E5        30.21F
FRANKLIN*      MOSUNNY   82  63  52 SE8       30.20F
WAKEFIELD      SUNNY     84  66  54 VRB6      30.20F
$$

VAZ020-022-025-037-045-301800-
WEST CENTRAL AND SOUTHWEST VIRGINIA

CITY           SKY/WX    TMP DP  RH WIND       PRES   REMARKS
STAUNTON*      PTSUNNY   85  62  46 S10       30.19F
WAYNESBORO*    CLOUDY    70  66  85 E8G20     30.20F
HOT SPRINGS VA MOSUNNY   68  64  87 S7        30.29F
LYNCHBURG      PTSUNNY   81  64  56 SW6       30.20F
DANVILLE       PTSUNNY   82  64  54 CALM      30.19F
SOUTH BOSTON*  PTSUNNY   82  65  56 MISG      30.19F
MARTINSVILLE   MOSUNNY   84  60  44 S3        30.22F
ROANOKE        MOSUNNY   81  63  54 S7        30.20F
BLACKSBURG     PTSUNNY   78  62  58 CALM      30.26F
DUBLIN*        PTSUNNY   79  62  56 S3        30.24F
MARION*        MOSUNNY   80  53  39 CALM      30.26F
HILLSVILLE*    MOSUNNY   74  61  62 S8        30.29S
RICHLANDS*     CLOUDY    75  59  58 W3        30.24F
WISE*          MOSUNNY   79  54  41 CALM      30.24F
ABINGDON*      MOSUNNY   81  55  39 W5        30.21F
$$

MDZ021>025-VAZ099-100-301800-
SOUTHERN MARYLAND AND THE DELMARVA PENINSULA

CITY           SKY/WX    TMP DP  RH WIND       PRES   REMARKS
PATUXENT RIVER PTSUNNY   78  69  73 SE13      30.18F
BAY BRIDGE APT   N/A    N/A N/A N/A S9        30.17F
LEONARDTOWN    MOSUNNY   82  64  54 S9        30.19F
DOVER          MOSUNNY   85  69  57 S10       30.16S
GEORGETOWN     MOSUNNY   85  64  49 S9G21     30.19F
EASTON         PTSUNNY   82  72  69 SW10      30.21F
CAMBRIDGE      MOSUNNY   82  64  54 S9        30.18F
SALISBURY      MOSUNNY   83  64  52 S13       30.19F
OCEAN CITY     SUNNY     77  66  68 S8        30.22F
WALLOPS ISLAND SUNNY     79  68  69 S14       30.22F
ACCOMACK*      PTSUNNY   82  68  61 SE12      30.21F
$$

NCZ012>017-030>032-301800-
NORTH CENTRAL AND EASTERN NORTH CAROLINA

CITY           SKY/WX    TMP DP  RH WIND       PRES   REMARKS
ROANOKE RAPIDS PTSUNNY   81  64  57 CALM      30.20F
RALEIGH        PTSUNNY   81  66  60 S6        30.20F
ELIZABETH CITY PTSUNNY   80  65  59 SE9       30.22F
AHOSKIE*       SUNNY     80  65  58 CALM      30.20F
EDENTON*         N/A     82  65  57 CALM      30.21F
CURRITUCK*     PTSUNNY   81  65  59 E8        30.22F
KILL DEVIL HLS SUNNY     80  64  58 E12       30.22S
MANTEO         MOSUNNY   80  64  56 E12       30.23S
CAPE HATTERAS  SUNNY     82  62  50 SE7       30.23S
TARBORO*       PTSUNNY   85  65  52 E5        30.20F
GOLDSBORO      PTSUNNY   82  66  58 CALM      30.17F
WASHINGTON     SUNNY     83  63  51 S6        30.21F
GREENVILLE     SUNNY     84  66  54 S5        30.21F
NEW BERN       SUNNY     83  61  47 VRB5      30.21F
WILMINGTON     SUNNY     81  65  58 E13       30.20F
$$

VAZ048-301800-
ELSEWHERE

CITY           SKY/WX    TMP DP  RH WIND       PRES   REMARKS
HARRISBURG PA  PTSUNNY   86  67  52 S8        30.11F
BALTIMORE      PTSUNNY   86  63  45 S13       30.14F
ANNAPOLIS      SUNNY     79  68  69 SE15      30.16F
ANDREWS AFB    MOSUNNY   84  66  55 S13       30.16F
PHILADELPHIA   MOSUNNY   84  66  54 S9        30.16F
HENDERSON NC   MOSUNNY   83  61  46 SW3       30.20F
GREENSBORO     PTSUNNY   79  63  57 W5        30.21F
ROCKY MOUNT    CLOUDY    83  65  54 SE6       30.20F
$$

VAZ100-301800-
MARINE

STATION/POSITION TIME  TEMP    WIND        PRES    WAVE   SWELL
                       AIR SEA DIR/SP/G            HT/PER HT/PER
                 (UTC) (F)     (DEG/KT/KT) (MB)    (FT/S) (FT/S)
BRANDYWINE LGT   1600   68 68  160/ 12/ 14 1023.1F
CAPE MAY NJ      1600   73 70  170/ 11/ 14 1022.8F
LEWES DE         1600   78 62  140/  9/ 12 1022.5F
15NM E FENWICK I 1650   68 66              1023.1F   3/ 9
OCEAN-CITY-INLET 1600   68 60  190/  8/ 11 1023.3F
WACHAPREAGUE VA  1600   78 78  190/  8/ 11 1023.6F
THOMAS POINT MD  1700   74 72  160/ 14/ 15 1022.1F
GOOSES REEF MD   1700   74 72  170/ 14/ 17 1022.8F   1/ 3
COVE POINT MD    1600   71     180/ 15/ 17 1023.2F
SOLOMONS ISLAND  1600      74                N/A
BISHOPS HEAD MD  1600   76 78  180/  9/ 12 1022.8F
PINEY POINT MD   1600          150/  9/ 10   N/A
CAMBRIDGE MD     1600   80 74  170/  6/ 13 1022.4F
LEWISETTA VA     1600   80 76              1022.2F
RAPPAHANNOCK LGT 1600          190/  8/  8 1024.0F
STINGRAY PT      1700   74 74  160/ 12/ 14 1022.8F   1/ 2
YORK RVR RNG VA  1600   74     130/  9/ 10 1022.8F
YORKTOWN VA      1600   78 72  230/  3/  5 1022.9F
JAMESTOWN VA     1700   80 80  100/  6/  8   N/A
DOMINION TERM VA 1600   77     150/  2/  2 1023.4F
KIPTOPEKE VA     1600      76  180/  7/  8   N/A
CHES BAY BRIDGE  1600   73 70   70/ 11/ 12 1023.1F
CAPE HENRY VA    1600   74     120/  8/ 11 1022.4F
CHESAPEAKE LGHT  1600   71     130/ 10/ 10 1024.5F
WILLOUBY STN VA  1600   73      80/  8/  9 1024.1F
CAPE HENRY BUOY  1628      67                N/A     3/ 9
1ST LANDING BUOY 1700      73              1022.8F
CAPE CHARLES BUO 1626      72                N/A     3/ 8   3/ 8
OFFSHORE WE BUOY 1611      70                N/A     4/ 9   3/ 9
64NM E OF VA BCH 1650   71 70   90/  4/  6 1023.8F   4/ 8   3/ 8
DUCK PIER NC     1600   77 56  100/  7/  8 1022.9F
44100 DUCK FRF   1624      77                N/A     3/10
44056 DUCK FRF   1611      69                N/A     3/ 9   2/11
OREGON INLET NC  1600   78 77  100/  6/  9 1023.9F
HATTERAS NC      1600   78 77  130/  5/  8 1023.4F
DIAMOND SHLS NC  1650   76 80   90/  6/  8 1023.7S   3/ 9   3/ 9
CAPE LOOKOUT NC  1700   76      90/  8/  8 1023.0F
$$



USA.gov is the U.S. government's official web portal to all federal, state and local government web resources and services.